Del Norte, CO

6:37 AM MST on February 14, 2016 (GMT -0700)
Wolf Creek Pass

Weather History for KCPW - April, 2014

Change the Weather History Date:

Tuesday, April 8, 2014

  Actual Average (KALS) Record (KALS)
Temperature  
Mean Temperature 31 °F 40 °F  
Max Temperature 41 °F 57 °F 74 °F (1989)
Min Temperature 21 °F 22 °F -6 °F (1973)
Degree Days  
Heating Degree Days 34 25  
Month to date heating degree days 210  
Since 1 July heating degree days 7516  
Cooling Degree Days 0 0  
Month to date cooling degree days 0  
Year to date cooling degree days 0  
Moisture  
Dew Point 13 °F    
Average Humidity 50    
Maximum Humidity 68    
Minimum Humidity 28    
Precipitation  
Precipitation 0.00 in 0.01 in 0.40 in (1958)
Month to date precipitation 0.15  
Year to date precipitation 1.20  
Snow  
Snow 0.00 in 0.10 in 5.00 in (1937)
Month to date snowfall 1.2  
Since 1 July snowfall 24.3  
Snow Depth -    
Sea Level Pressure  
Sea Level Pressure 30.45 in    
Wind  
Wind Speed 7 mph (West)    
Max Wind Speed 17 mph    
Max Gust Speed 25 mph    
Visibility 10 miles    
Events      
T = Trace of Precipitation, MM = Missing Value Source: NWS Daily Summary

Daily Weather History Graph

Daily Weather History Graph

Search for Another Location

Airport or City:

Trip Planner

Search our weather history database for the weather conditions in past years. The results will help you decide how hot, cold, wet, or windy it might be!

Date:

Astronomy

Apr. 08, 2014 Rise Set
Actual Time 6:42 AM MDT 7:36 PM MDT
Civil Twilight 6:15 AM MDT 8:02 PM MDT
Nautical Twilight 5:44 AM MDT 8:34 PM MDT
Astronomical Twilight 5:11 AM MDT 9:07 PM MDT
Moon 1:39 PM MDT (4/8) 2:49 AM MDT (4/8)
Length of Visible Light 13h 47m
Length of Day
12h 54m
Waxing Gibbous, 63% of the Moon is Illuminated
Apr 8
Waxing Gibbous
Apr 15
Full
Apr 22
Last Quarter
Apr 29
New
May 6
First Quarter

Hourly Weather History & Observations

Time (MDT) Temp. Windchill Dew Point Humidity Pressure Visibility Wind Dir Wind Speed Gust Speed Precip Events Conditions
12:16 AM 21.2 °F 14.9 °F 10.4 °F 63% 30.39 in 10.0 mi SW 4.6 mph - N/A   Clear
12:32 AM 21.2 °F 13.6 °F 10.4 °F 63% 30.40 in 10.0 mi WNW 5.8 mph - N/A   Clear
12:57 AM 21.2 °F 12.6 °F 12.2 °F 68% 30.40 in 10.0 mi SSW 6.9 mph - N/A   Clear
1:05 AM 21.2 °F 14.9 °F 12.2 °F 68% 30.40 in 10.0 mi WSW 4.6 mph - N/A   Clear
1:35 AM 21.2 °F 11.7 °F 12.2 °F 68% 30.40 in 10.0 mi SW 8.1 mph - N/A   Clear
1:56 AM 21.2 °F 13.6 °F 12.2 °F 68% 30.39 in 10.0 mi West 5.8 mph - N/A   Clear
2:12 AM 21.2 °F 14.9 °F 12.2 °F 68% 30.39 in 10.0 mi SW 4.6 mph - N/A   Clear
2:36 AM 21.2 °F 13.6 °F 12.2 °F 68% 30.39 in 10.0 mi West 5.8 mph - N/A   Clear
2:57 AM 21.2 °F 14.9 °F 12.2 °F 68% 30.38 in 10.0 mi WNW 4.6 mph - N/A   Clear
3:16 AM 21.2 °F 12.6 °F 12.2 °F 68% 30.38 in 10.0 mi SW 6.9 mph - N/A   Clear
3:28 AM 21.2 °F 14.9 °F 12.2 °F 68% 30.39 in 10.0 mi SW 4.6 mph - N/A   Clear
3:55 AM 21.2 °F 16.4 °F 12.2 °F 68% 30.39 in 10.0 mi SSW 3.5 mph - N/A   Clear
4:17 AM 21.2 °F 14.9 °F 12.2 °F 68% 30.39 in 10.0 mi West 4.6 mph - N/A   Clear
4:32 AM 21.2 °F 13.6 °F 12.2 °F 68% 30.39 in 10.0 mi West 5.8 mph - N/A   Clear
4:56 AM 21.2 °F 14.9 °F 12.2 °F 68% 30.40 in 10.0 mi WNW 4.6 mph - N/A   Clear
5:14 AM 21.2 °F 13.6 °F 12.2 °F 68% 30.40 in 10.0 mi North 5.8 mph - N/A   Clear
5:36 AM 21.2 °F 11.7 °F 12.2 °F 68% 30.40 in 10.0 mi North 8.1 mph - N/A   Clear
5:54 AM 21.2 °F 9.5 °F 12.2 °F 68% 30.40 in 10.0 mi NNE 11.5 mph - N/A   Clear
6:07 AM 21.2 °F 10.1 °F 12.2 °F 68% 30.41 in 10.0 mi NNE 10.4 mph - N/A   Clear
6:36 AM 21.2 °F 10.1 °F 12.2 °F 68% 30.41 in 10.0 mi NE 10.4 mph - N/A   Clear
6:57 AM 21.2 °F 12.6 °F 12.2 °F 68% 30.42 in 10.0 mi NNE 6.9 mph - N/A   Clear
7:12 AM 23.0 °F 13.1 °F 12.2 °F 63% 30.42 in 10.0 mi NE 9.2 mph - N/A   Clear
7:37 AM 26.6 °F 17.5 °F 14.0 °F 59% 30.43 in 10.0 mi NNE 9.2 mph - N/A   Clear
7:50 AM 26.6 °F 17.5 °F 14.0 °F 59% 30.43 in 10.0 mi NNE 9.2 mph - N/A   Clear
8:14 AM 26.6 °F 16.2 °F 14.0 °F 59% 30.44 in 10.0 mi NE 11.5 mph 20.7 mph N/A   Clear
8:29 AM 28.4 °F 20.4 °F 12.2 °F 51% 30.44 in 10.0 mi NE 8.1 mph - N/A   Clear
8:46 AM 28.4 °F 22.2 °F 14.0 °F 55% 30.45 in 10.0 mi ENE 5.8 mph - N/A   Clear
9:12 AM 30.2 °F 26.7 °F 12.2 °F 47% 30.45 in 10.0 mi South 3.5 mph - N/A   Clear
9:36 AM 30.2 °F - 12.2 °F 47% 30.46 in 10.0 mi Calm Calm - N/A   Clear
9:56 AM 32.0 °F 28.7 °F 12.2 °F 44% 30.47 in 10.0 mi NNW 3.5 mph - N/A   Clear
10:14 AM 32.0 °F - 10.4 °F 41% 30.47 in 10.0 mi Calm Calm - N/A   Clear
10:37 AM 33.8 °F - 10.4 °F 38% 30.48 in 10.0 mi Calm Calm - N/A   Clear
10:57 AM 33.8 °F 30.8 °F 10.4 °F 38% 30.49 in 10.0 mi West 3.5 mph - N/A   Clear
11:17 AM 35.6 °F 29.2 °F 10.4 °F 35% 30.49 in 10.0 mi West 8.1 mph - N/A   Clear
11:32 AM 35.6 °F 29.9 °F 8.6 °F 33% 30.49 in 10.0 mi WNW 6.9 mph - N/A   Clear
11:54 AM 35.6 °F 32.8 °F 10.4 °F 35% 30.49 in 10.0 mi WNW 3.5 mph - N/A   Clear
12:13 PM 37.4 °F 32.1 °F 10.4 °F 33% 30.49 in 10.0 mi North 6.9 mph - N/A   Clear
12:36 PM 35.6 °F 32.8 °F 10.4 °F 35% 30.49 in 10.0 mi NW 3.5 mph - N/A   Clear
12:57 PM 37.4 °F 31.4 °F 10.4 °F 33% 30.49 in 10.0 mi West 8.1 mph - N/A   Clear
1:12 PM 37.4 °F 33.8 °F 10.4 °F 33% 30.49 in 10.0 mi West 4.6 mph - N/A   Clear
1:32 PM 37.4 °F - 10.4 °F 33% 30.49 in 10.0 mi Calm Calm - N/A   Clear
1:56 PM 39.2 °F 33.6 °F 10.4 °F 31% 30.49 in 10.0 mi West 8.1 mph 16.1 mph N/A   Clear
2:14 PM 39.2 °F 33.0 °F 10.4 °F 31% 30.49 in 10.0 mi West 9.2 mph - N/A   Clear
2:37 PM 39.2 °F 32.0 °F 8.6 °F 28% 30.48 in 10.0 mi West 11.5 mph 23.0 mph N/A   Clear
2:57 PM 41.0 °F 37.1 °F 10.4 °F 29% 30.48 in 10.0 mi West 5.8 mph 16.1 mph N/A   Clear
3:06 PM 39.2 °F - 8.6 °F 28% 30.48 in 10.0 mi Calm Calm - N/A   Clear
3:37 PM 41.0 °F 36.4 °F 12.2 °F 31% 30.48 in 10.0 mi West 6.9 mph 16.1 mph N/A   Clear
3:52 PM 41.0 °F 37.1 °F 12.2 °F 31% 30.47 in 10.0 mi NNW 5.8 mph - N/A   Clear
4:17 PM 41.0 °F 33.5 °F 14.0 °F 33% 30.47 in 10.0 mi SW 13.8 mph 19.6 mph N/A   Scattered Clouds
4:28 PM 41.0 °F 36.4 °F 14.0 °F 33% 30.47 in 10.0 mi West 6.9 mph 11.5 mph N/A   Scattered Clouds
4:51 PM 41.0 °F 35.8 °F 17.6 °F 39% 30.47 in 10.0 mi West 8.1 mph - N/A   Mostly Cloudy
5:12 PM 39.2 °F 31.6 °F 15.8 °F 39% 30.47 in 10.0 mi WSW 12.7 mph 17.3 mph N/A   Scattered Clouds
5:31 PM 41.0 °F 34.7 °F 15.8 °F 36% 30.47 in 10.0 mi SW 10.4 mph - N/A   Clear
5:55 PM 39.2 °F 31.2 °F 17.6 °F 42% 30.47 in 10.0 mi SSW 13.8 mph 20.7 mph N/A   Clear
6:10 PM 37.4 °F 30.8 °F 15.8 °F 41% 30.47 in 10.0 mi SW 9.2 mph 18.4 mph N/A   Clear
6:37 PM 37.4 °F 31.4 °F 17.6 °F 45% 30.48 in 10.0 mi SW 8.1 mph - N/A   Clear
6:55 PM 37.4 °F 29.3 °F 17.6 °F 45% 30.48 in 10.0 mi SSW 12.7 mph 21.9 mph N/A   Clear
7:17 PM 35.6 °F 26.2 °F 17.6 °F 48% 30.48 in 10.0 mi SW 15.0 mph - N/A   Clear
7:37 PM 33.8 °F 23.2 °F 17.6 °F 52% 30.48 in 10.0 mi SW 17.3 mph 25.3 mph N/A   Clear
7:55 PM 33.8 °F 23.2 °F 17.6 °F 52% 30.48 in 10.0 mi SW 17.3 mph 24.2 mph N/A   Clear
8:17 PM 32.0 °F 21.6 °F 17.6 °F 55% 30.49 in 10.0 mi SW 15.0 mph 23.0 mph N/A   Clear
8:37 PM 32.0 °F 22.1 °F 17.6 °F 55% 30.49 in 10.0 mi SW 13.8 mph 21.9 mph N/A   Clear
8:57 PM 32.0 °F 22.1 °F 17.6 °F 55% 30.49 in 10.0 mi SW 13.8 mph - N/A   Clear
9:14 PM 32.0 °F 21.6 °F 15.8 °F 51% 30.49 in 10.0 mi SW 15.0 mph - N/A   Clear
9:37 PM 32.0 °F 21.2 °F 15.8 °F 51% 30.49 in 10.0 mi SW 16.1 mph - N/A   Clear
9:51 PM 32.0 °F 22.5 °F 15.8 °F 51% 30.50 in 10.0 mi SW 12.7 mph - N/A   Clear
10:12 PM 32.0 °F 23.6 °F 15.8 °F 51% 30.49 in 10.0 mi SW 10.4 mph - N/A   Clear
10:37 PM 30.2 °F 21.9 °F 14.0 °F 51% 30.49 in 10.0 mi WSW 9.2 mph - N/A   Clear
10:52 PM 30.2 °F 21.3 °F 14.0 °F 51% 30.49 in 10.0 mi West 10.4 mph - N/A   Clear
11:11 PM 30.2 °F 22.6 °F 14.0 °F 51% 30.49 in 10.0 mi WSW 8.1 mph - N/A   Clear
11:37 PM 30.2 °F 25.4 °F 12.2 °F 47% 30.49 in 10.0 mi West 4.6 mph - N/A   Clear
11:54 PM 30.2 °F 24.3 °F 12.2 °F 47% 30.49 in 10.0 mi WSW 5.8 mph - N/A   Clear